1505484000.6,48154,18.5,73648.0,5.61,-1.21,-0.93,0,*4B
1505484001.84,48155,18.44,73648.5,5.61,-1.33,-1.09,0,*7B
1505484003.07,48156,18.5,73652.8,5.57,-1.25,-0.89,0,*43
1505484004.3,48157,18.5,73654.8,5.57,-1.01,-0.73,0,*41
1505484005.5,48158,18.5,73652.5,5.53,-0.89,-0.57,0,*7D
1505484006.71,48159,18.5,73650.3,5.53,-1.13,-0.77,0,*4C
1505484007.93,48160,18.5,73652.0,5.53,-1.13,-0.89,0,*47
1505484009.16,48161,18.5,73650.8,5.53,-1.43,-1.01,0,*72
1505484010.39,48162,18.5,73648.0,5.51,-0.93,-0.45,0,*7E
1505484011.62,48163,18.5,73650.3,5.51,-0.85,-0.53,0,*7F
1505484012.88,48164,18.5,73650.5,5.51,-1.47,-1.09,0,*79
1505484014.14,48165,18.44,73650.3,5.51,-1.39,-1.09,0,*71
1505484015.35,48166,18.5,73652.5,5.45,-1.25,-0.89,0,*43
1505484016.58,48167,18.5,73650.3,5.49,-1.83,-1.47,0,*71
1505484017.81,48168,18.5,73652.8,5.45,-1.35,-1.09,0,*75
1505484019.02,48169,18.5,73656.0,5.45,-1.21,-0.85,0,*44
1505484020.23,48170,18.5,73652.3,5.45,-2.27,-1.99,0,*75
1505484021.48,48171,18.5,73650.3,5.41,-2.47,-2.07,0,*72
1505484022.72,48172,18.5,73654.5,5.41,-1.83,-1.43,0,*79
1505484023.93,48173,18.5,73654.8,5.37,-2.11,-1.75,0,*74
1505484025.15,48174,18.5,73650.3,5.37,-2.23,-1.83,0,*7B
1505484026.39,48175,18.5,73652.5,5.33,-1.87,-1.47,0,*7B
1505484027.6,48176,18.5,73652.0,5.33,-1.13,-0.81,0,*4E
1505484028.81,48177,18.5,73652.5,5.35,-0.77,-0.37,0,*77
1505484030.04,48178,18.5,73656.0,5.33,-1.13,-0.93,0,*43
1505484031.27,48179,18.5,73652.3,5.35,-1.01,-0.81,0,*44
1505484032.49,48180,18.5,73652.5,5.35,-0.77,-0.41,0,*7E
1505484033.7,48181,18.5,73652.5,5.35,-0.81,-0.53,0,*75
1505484034.88,48182,18.5,73654.5,5.33,-0.65,-0.37,0,*78
1505484036.06,48183,18.5,73652.0,5.33,-0.53,-0.37,0,*7C
1505484037.24,48184,18.5,73650.3,5.33,-0.41,-0.29,0,*77
1505484038.46,48185,18.5,73652.0,5.35,-0.93,-0.65,0,*77
1505484039.7,48186,18.5,73650.0,5.35,-0.41,-0.27,0,*7D
1505484040.91,48187,18.5,73650.0,5.35,-0.77,-0.49,0,*71
1505484042.13,48188,18.5,73654.3,5.33,-1.29,-1.05,0,*7B
1505484043.31,48189,18.5,73650.8,5.33,-1.79,-1.51,0,*7E
1505484044.52,48190,18.5,73650.8,5.33,-0.93,-0.41,0,*73
1505484045.73,48191,18.5,73652.8,5.31,-0.69,-0.33,0,*70
1505484046.92,48192,18.5,73652.5,5.33,-0.07,0.37,0,*60
1505484048.11,48193,18.5,73652.8,5.33,-0.29,0.13,0,*5B
1505484049.28,48194,18.5,73658.0,5.33,-0.29,0.09,0,*67
1505484050.45,48195,18.5,73660.5,5.33,-0.53,-0.07,0,*48
1505484051.7,48196,18.5,73658.3,5.35,-0.27,0.13,0,*56
1505484052.93,48197,18.5,73656.5,5.35,0.21,0.67,0,*7F
1505484054.17,48198,18.5,73656.5,5.35,0.33,0.79,0,*7C
1505484055.37,48199,18.5,73658.8,5.37,-0.11,0.37,0,*58
1505484056.58,48200,18.5,73656.0,5.41,0.37,0.83,0,*7C
1505484057.79,48201,18.5,73656.3,5.37,0.37,0.63,0,*72
1505484059.0,48202,18.5,73658.3,5.41,0.75,0.95,0,*7F
1505484060.18,48203,18.5,73660.5,5.41,0.75,1.05,0,*46
1505484061.43,48204,18.5,73660.0,5.43,0.47,0.87,0,*79
1505484062.67,48205,18.5,73658.3,5.43,0.83,1.17,0,*48
1505484063.92,48206,18.5,73658.3,5.43,0.55,0.91,0,*7F
1505484065.14,48207,18.5,73662.8,5.45,0.83,1.09,0,*43
1505484066.37,48208,18.5,73660.5,5.49,1.09,1.25,0,*7D
1505484067.58,48209,18.5,73660.3,5.49,1.25,1.43,0,*72
1505484068.81,48210,18.5,73664.0,5.51,1.01,1.25,0,*75
1505484070.0,48211,18.5,73664.3,5.53,1.05,1.29,0,*7E
1505484071.26,48212,18.5,73664.3,5.57,1.09,1.25,0,*79
1505484072.5,48213,18.5,73664.0,5.57,0.87,1.13,0,*4A
1505484073.69,48214,18.5,73662.8,5.59,0.63,0.97,0,*74
1505484074.9,48215,18.5,73664.3,5.59,0.21,0.47,0,*7E
1505484076.11,48216,18.5,73666.0,5.59,0.63,0.95,0,*74
1505484077.32,48217,18.5,73666.3,5.63,0.67,0.91,0,*7C
1505484078.54,48218,18.5,73666.5,5.63,1.09,1.29,0,*78
1505484079.73,48219,18.5,73660.8,5.67,0.43,0.75,0,*7A
1505484080.93,48220,18.5,73664.8,5.67,0.33,0.67,0,*74
1505484082.17,48221,18.5,73666.0,5.69,0.83,1.17,0,*46
1505484083.4,48222,18.5,73664.5,5.69,0.47,0.95,0,*76
1505484084.63,48223,18.5,73666.8,5.73,0.25,0.91,0,*7C
1505484085.88,48224,18.5,73666.8,5.73,-0.23,0.55,0,*58
1505484087.09,48225,18.5,73668.0,5.73,-0.37,0.41,0,*59
1505484088.29,48226,18.5,73664.0,5.75,-0.57,0.37,0,*5B
1505484089.48,48227,18.5,73670.3,5.77,-0.69,0.09,0,*68
1505484090.74,48228,18.5,73666.8,5.77,-1.05,-0.27,0,*4D
1505484091.95,48229,18.5,73664.0,5.77,-0.57,0.17,0,*54
1505484093.12,48230,18.5,73668.5,5.79,-0.65,0.01,0,*64
1505484094.3,48231,18.5,73666.8,5.79,-0.61,0.13,0,*52
1505484095.52,48232,18.5,73668.5,5.81,-0.41,0.25,0,*51
1505484096.74,48233,18.5,73662.5,5.81,-0.37,0.25,0,*51
1505484097.92,48234,18.5,73670.0,5.83,-0.69,-0.19,0,*7D
1505484099.13,48235,18.5,73666.5,5.83,-0.97,-0.49,0,*78
1505484100.33,48236,18.5,73666.5,5.83,-0.85,-0.37,0,*71
1505484101.54,48237,18.5,73668.5,5.83,-0.97,-0.49,0,*7A
1505484102.73,48238,18.5,73664.5,5.85,-0.49,0.01,0,*61
1505484103.92,48239,18.5,73666.8,5.85,-0.45,0.05,0,*68
1505484105.13,48240,18.5,73666.8,5.85,-0.37,0.13,0,*54
1505484106.33,48241,18.5,73666.0,5.89,-0.15,0.43,0,*5C
1505484107.58,48242,18.5,73666.0,5.89,0.21,0.71,0,*74
1505484108.81,48243,18.5,73666.0,5.91,0.71,1.09,0,*47
1505484110.03,48244,18.44,73662.3,5.91,0.47,0.83,0,*76
1505484111.27,48245,18.5,73666.0,5.97,0.13,0.25,0,*7C
1505484112.51,48246,18.5,73666.8,5.97,0.29,0.17,0,*77
1505484113.71,48247,18.5,73670.3,5.99,0.17,-0.19,0,*56
1505484114.92,48248,18.5,73672.0,5.99,-0.41,-0.93,0,*75
1505484116.15,48249,18.5,73670.5,5.99,-1.33,-1.83,0,*70
1505484117.41,48250,18.5,73670.8,5.99,-1.39,-2.07,0,*7D
1505484118.66,48251,18.5,73668.5,6.01,-1.29,-2.55,0,*78
1505484119.88,48252,18.5,73668.8,6.03,-1.29,-3.43,0,*7F
1505484121.13,48253,18.5,73670.5,6.03,-1.87,-4.81,0,*73
1505484122.36,48254,18.5,73670.3,6.07,-3.75,-7.35,0,*73
1505484123.61,48255,18.5,73670.5,6.05,-5.31,-8.97,0,*71
1505484124.86,48256,18.5,73672.8,6.07,-6.19,-9.41,0,*73
1505484126.11,48257,18.5,73674.5,6.05,-6.97,-10.85,0,*46
1505484127.33,48258,18.5,73674.3,6.05,-8.45,-12.89,0,*46
1505484128.55,48259,18.5,73674.8,6.05,-9.93,-13.93,0,*47
1505484129.79,48260,18.5,73674.5,6.07,-11.01,-14.47,0,*73
1505484131.08,48261,18.5,73672.5,6.05,-11.77,-16.09,0,*79
1505484132.31,48262,18.5,73670.8,6.07,-13.29,-18.41,0,*73
1505484133.56,48263,18.5,73670.8,6.05,-14.29,-20.79,0,*77
1505484134.82,48264,18.5,73674.8,6.05,-16.03,-23.65,0,*74
1505484136.07,48265,18.5,73672.3,6.05,-17.21,-25.19,0,*79
1505484137.36,48266,18.5,73668.5,6.05,-16.65,-24.87,0,*7D
1505484138.61,48267,18.5,73670.8,6.01,-15.95,-24.67,0,*7A
1505484139.83,48268,18.5,73668.8,6.01,-15.53,-24.35,0,*78
1505484141.06,48269,18.5,73668.8,5.97,-15.29,-24.05,0,*7B
1505484142.33,48270,18.5,73668.0,5.97,-14.43,-22.93,0,*77
1505484143.61,48271,18.5,73668.5,5.97,-13.29,-21.53,0,*72
1505484144.89,48272,18.5,73668.5,5.93,-12.11,-19.85,0,*7F
1505484146.15,48273,18.5,73668.0,5.93,-10.93,-17.03,0,*76
1505484147.41,48274,18.5,73670.8,5.93,-10.31,-15.57,0,*7A
1505484148.64,48275,18.5,73668.8,5.89,-9.23,-15.71,0,*4F
1505484149.86,48276,18.5,73668.0,5.89,-9.19,-16.89,0,*41
1505484151.14,48277,18.5,73666.0,5.85,-9.15,-17.41,0,*45
1505484152.36,48278,18.5,73666.8,5.83,-9.41,-17.87,0,*47
1505484153.61,48279,18.5,73664.0,5.83,-9.45,-17.41,0,*48
1505484154.85,48280,18.5,73666.0,5.81,-9.45,-16.75,0,*4A
1505484156.07,48281,18.5,73666.5,5.79,-9.27,-16.23,0,*4B
1505484157.27,48282,18.5,73668.0,5.79,-9.01,-15.49,0,*43
1505484158.48,48283,18.5,73666.5,5.77,-8.29,-13.55,0,*4C
1505484159.72,48284,18.5,73666.5,5.75,-7.39,-11.97,0,*4B
1505484160.96,48285,18.5,73664.0,5.73,-6.97,-10.89,0,*47
1505484162.14,48286,18.5,73666.0,5.71,-6.73,-11.19,0,*44
1505484163.4,48287,18.5,73660.8,5.69,-5.27,-9.41,0,*7A
1505484164.63,48288,18.5,73662.5,5.69,-4.17,-8.51,0,*77
1505484165.84,48289,18.5,73662.5,5.67,-3.07,-6.93,0,*7E
1505484167.05,48290,18.5,73658.8,5.67,-2.31,-5.77,0,*7B
1505484168.23,48291,18.5,73656.8,5.67,-1.51,-4.57,0,*7C
1505484169.41,48292,18.5,73658.5,5.67,-1.25,-3.27,0,*7C
1505484170.6,48293,18.5,73656.8,5.67,-1.55,-2.95,0,*72
1505484171.81,48294,18.5,73652.8,5.67,-2.07,-3.07,0,*7B
1505484173.01,48295,18.5,73656.5,5.67,-2.91,-3.63,0,*77
1505484174.23,48296,18.5,73656.8,5.61,-3.11,-3.55,0,*7E
1505484175.44,48297,18.5,73658.3,5.61,-2.87,-2.95,0,*7C
1505484176.66,48298,18.5,73656.0,5.57,-3.03,-3.03,0,*75
1505484177.83,48299,18.5,73662.8,5.53,-3.03,-2.79,0,*7C
1505484179.05,48300,18.5,73656.5,5.51,-3.79,-3.31,0,*7F
1505484180.26,48301,18.5,73658.0,5.49,-3.23,-2.67,0,*7A
1505484181.47,48302,18.5,73658.5,5.49,-3.39,-2.75,0,*71
1505484182.68,48303,18.5,73662.0,5.45,-4.29,-3.59,0,*75
1505484183.89,48304,18.5,73666.3,5.43,-4.09,-3.19,0,*72
1505484185.08,48305,18.5,73662.3,5.41,-4.25,-3.07,0,*70
1505484186.31,48306,18.5,73664.8,5.41,-3.79,-2.55,0,*7B
1505484187.5,48307,18.5,73658.0,5.41,-4.33,-2.95,0,*7F
1505484188.72,48308,18.5,73660.5,5.41,-3.91,-2.59,0,*7F
1505484189.93,48309,18.5,73660.0,5.41,-3.55,-2.27,0,*7F
1505484191.15,48310,18.5,73660.5,5.41,-4.73,-3.55,0,*70
1505484192.35,48311,18.5,73662.3,5.41,-5.51,-4.21,0,*74
1505484193.58,48312,18.5,73658.3,5.41,-4.89,-3.59,0,*7B
1505484194.81,48313,18.5,73658.5,5.43,-5.11,-3.75,0,*76
1505484196.06,48314,18.5,73660.3,5.43,-6.09,-4.85,0,*73
1505484197.27,48315,18.5,73656.3,5.45,-6.97,-6.05,0,*79
1505484198.53,48316,18.5,73660.3,5.43,-7.31,-6.63,0,*71
1505484199.79,48317,18.5,73656.0,5.43,-7.99,-7.35,0,*70
1505484201.0,48318,18.5,73656.0,5.41,-8.33,-7.77,0,*74
1505484202.22,48319,18.5,73658.3,5.41,-7.77,-7.23,0,*7B
1505484203.43,48320,18.5,73658.5,5.41,-7.35,-6.73,0,*73
1505484204.62,48321,18.5,73654.5,5.37,-6.85,-6.43,0,*7A
1505484205.81,48322,18.5,73654.5,5.37,-6.59,-6.31,0,*7D
1505484207.05,48323,18.5,73654.5,5.37,-5.73,-5.65,0,*75
1505484208.29,48324,18.5,73648.3,5.37,-5.07,-4.81,0,*7A
1505484209.5,48325,18.5,73650.5,5.35,-4.29,-4.17,0,*7B
1505484210.76,48326,18.5,73652.0,5.35,-3.67,-3.43,0,*73
1505484211.98,48327,18.5,73652.3,5.35,-2.91,-2.87,0,*73
1505484213.17,48328,18.5,73654.0,5.37,-2.35,-2.23,0,*7E
1505484214.35,48329,18.5,73652.3,5.41,-2.19,-2.35,0,*77
1505484215.54,48330,18.5,73650.0,5.41,-2.27,-2.35,0,*72
1505484216.75,48331,18.5,73652.5,5.41,-1.71,-1.95,0,*7A
1505484217.94,48332,18.5,73652.8,5.41,-1.17,-1.51,0,*71
1505484219.13,48333,18.5,73648.0,5.41,-1.33,-1.55,0,*72
1505484220.35,48334,18.5,73650.3,5.41,-1.17,-1.39,0,*79
1505484221.58,48335,18.5,73652.3,5.43,-0.81,-0.93,0,*75
1505484222.81,48336,18.5,73654.0,5.43,-1.13,-1.29,0,*7C
1505484224.05,48337,18.5,73652.0,5.43,-1.13,-1.29,0,*7D
1505484225.32,48338,18.5,73650.8,5.43,-1.05,-1.13,0,*7C
1505484226.58,48339,18.5,73652.5,5.43,-1.05,-1.05,0,*7A
1505484227.82,48340,18.5,73650.8,5.41,-1.09,-1.09,0,*76
1505484229.02,48341,18.5,73654.5,5.43,-0.65,-0.49,0,*7B
1505484230.23,48342,18.5,73648.0,5.45,-0.85,-0.57,0,*7F
1505484231.43,48343,18.5,73656.3,5.45,-0.97,-0.65,0,*7C
1505484232.62,48344,18.5,73652.0,5.49,-1.09,-0.65,0,*41
1505484233.83,48345,18.5,73652.8,5.49,-1.09,-0.57,0,*41
1505484235.02,48346,18.5,73652.3,5.49,-1.09,-0.65,0,*43
1505484236.23,48347,18.5,73654.0,5.51,-1.59,-1.17,0,*7A
1505484237.46,48348,18.5,73648.8,5.51,-1.59,-1.09,0,*7A
1505484238.73,48349,18.5,73648.5,5.51,-2.07,-1.43,0,*7D
1505484239.94,48350,18.5,73650.0,5.53,-2.11,-1.29,0,*7C
1505484241.14,48351,18.5,73650.5,5.53,-2.91,-1.91,0,*76
1505484242.38,48352,18.5,73654.3,5.57,-3.87,-2.63,0,*79
1505484243.58,48353,18.5,73656.5,5.59,-3.75,-2.35,0,*78
1505484244.77,48354,18.5,73658.5,5.59,-4.65,-3.35,0,*78
1505484246.0,48355,18.5,73656.8,5.59,-6.63,-4.77,0,*7C
1505484247.21,48356,18.5,73652.8,5.57,-8.45,-5.43,0,*7D
1505484248.43,48357,18.5,73656.8,5.59,-11.19,-7.31,0,*44
1505484249.65,48358,18.5,73656.3,5.59,-15.39,-10.09,0,*70
1505484250.9,48359,18.5,73656.3,5.57,-17.59,-12.29,0,*7B
1505484252.17,48360,18.5,73656.0,5.51,-20.15,-14.75,0,*74
1505484253.44,48361,18.5,73656.8,5.51,-21.97,-15.89,0,*7C
1505484254.64,48362,18.5,73654.3,5.45,-22.37,-16.41,0,*74
1505484255.84,48363,18.5,73652.5,5.45,-22.53,-16.79,0,*7C
1505484257.09,48364,18.5,73652.3,5.41,-23.29,-17.41,0,*79
1505484258.29,48365,18.5,73652.3,5.41,-21.77,-16.89,0,*74
1505484259.51,48366,18.5,73656.3,5.37,-19.03,-14.79,0,*73
1505484260.77,48367,18.5,73650.8,5.35,-15.43,-12.39,0,*7A
1505484262.0,48368,18.5,73652.3,5.35,-14.37,-12.47,0,*7E
1505484263.22,48369,18.5,73658.3,5.33,-13.37,-10.57,0,*7D
1505484264.48,48370,18.5,73656.5,5.31,-13.97,-10.45,0,*7E
1505484265.68,48371,18.5,73656.0,5.29,-14.15,-9.75,0,*40
1505484266.88,48372,18.5,73654.0,5.29,-14.69,-10.35,0,*74
1505484268.12,48373,18.5,73654.8,5.25,-14.29,-10.67,0,*7A
1505484269.35,48374,18.5,73662.0,5.25,-14.47,-11.23,0,*74
1505484270.6,48375,18.5,73656.8,5.25,-14.75,-11.59,0,*79
1505484271.82,48376,18.5,73662.0,5.25,-16.23,-13.43,0,*72
1505484273.02,48377,18.5,73656.5,5.23,-16.83,-15.07,0,*79
1505484274.29,48378,18.5,73658.0,5.21,-14.51,-15.35,0,*78
1505484275.5,48379,18.5,73654.3,5.19,-13.15,-14.89,0,*73
1505484276.72,48380,18.5,73654.3,5.15,-11.89,-14.29,0,*74
1505484277.97,48381,18.5,73654.8,5.15,-10.63,-12.83,0,*76
1505484279.17,48382,18.5,73652.3,5.11,-8.93,-10.45,0,*4F
1505484280.38,48383,18.5,73650.3,5.11,-8.37,-8.81,0,*71
1505484281.6,48384,18.5,73650.5,5.07,-8.93,-8.81,0,*7F
1505484282.82,48385,18.5,73652.5,5.03,-9.71,-9.37,0,*7B
1505484284.04,48386,18.5,73648.8,5.03,-10.35,-9.41,0,*41
1505484285.26,48387,18.5,73654.3,5.01,-11.23,-9.27,0,*44
1505484286.52,48388,18.5,73656.5,4.97,-11.93,-9.93,0,*41
1505484287.79,48389,18.5,73652.0,4.97,-11.93,-9.61,0,*4D
1505484289.03,48390,18.5,73650.5,4.97,-10.31,-8.03,0,*49
1505484290.22,48391,18.5,73650.3,4.95,-8.67,-6.77,0,*7D
1505484291.45,48392,18.5,73654.0,4.93,-6.85,-5.55,0,*79
1505484292.67,48393,18.5,73652.0,4.93,-5.39,-4.25,0,*7A
1505484293.91,48394,18.5,73648.5,4.91,-5.15,-4.09,0,*7F
1505484295.14,48395,18.5,73650.8,4.89,-4.81,-3.59,0,*79
1505484296.32,48396,18.5,73648.8,4.89,-5.43,-3.75,0,*7B
1505484297.55,48397,18.5,73648.8,4.87,-6.13,-3.67,0,*71
1505484298.77,48398,18.5,73650.0,4.87,-6.09,-2.95,0,*79
1505484300.01,48399,18.5,73648.5,4.87,-5.65,-2.27,0,*78
1505484301.23,48400,18.5,73646.8,4.87,-5.35,-2.19,0,*77
1505484302.47,48401,18.5,73652.3,4.85,-5.23,-2.55,0,*7B
1505484303.69,48402,18.5,73654.3,4.89,-4.41,-2.07,0,*76
1505484304.91,48403,18.5,73656.3,4.87,-4.09,-1.67,0,*70
1505484306.15,48404,18.5,73652.3,4.91,-4.01,-1.67,0,*78
1505484307.36,48405,18.5,73652.0,4.89,-4.37,-2.11,0,*77
1505484308.57,48406,18.5,73654.8,4.87,-4.53,-2.43,0,*7F
1505484309.84,48407,18.5,73652.8,4.87,-3.71,-2.11,0,*7E
1505484311.05,48408,18.5,73648.0,4.85,-2.75,-1.63,0,*70
1505484312.29,48409,18.5,73654.3,4.89,-2.51,-1.35,0,*78
1505484313.51,48410,18.5,73654.0,4.89,-2.59,-1.09,0,*77
1505484314.73,48411,18.5,73652.8,4.89,-3.39,-1.47,0,*7B
1505484315.96,48412,18.5,73654.5,4.91,-4.53,-1.83,0,*72
1505484317.2,48413,18.5,73658.5,4.91,-6.13,-2.59,0,*71
1505484318.44,48414,18.5,73654.3,4.91,-10.05,-5.15,0,*49
1505484319.68,48415,18.5,73654.3,4.89,-11.55,-6.27,0,*47
1505484320.95,48416,18.56,73658.0,4.87,-11.97,-6.23,0,*40
1505484322.2,48417,18.5,73654.0,4.85,-13.83,-6.63,0,*40
1505484323.42,48418,18.5,73654.8,4.85,-13.79,-6.43,0,*48
1505484324.67,48419,18.5,73654.0,4.81,-12.75,-5.69,0,*4B
1505484325.94,48420,18.5,73658.5,4.79,-12.11,-5.69,0,*44
1505484327.16,48421,18.5,73658.3,4.81,-10.49,-4.85,0,*4E
1505484328.38,48422,18.5,73654.8,4.81,-9.67,-5.03,0,*76
1505484329.59,48423,18.5,73656.3,4.79,-8.21,-4.49,0,*7C
1505484330.82,48424,18.5,73658.5,4.81,-6.27,-3.67,0,*7F
1505484332.0,48425,18.5,73654.0,4.85,-4.17,-2.43,0,*7C
1505484333.22,48426,18.5,73652.8,4.87,-3.19,-2.27,0,*76
1505484334.46,48427,18.5,73656.5,4.87,-2.19,-1.87,0,*7F
1505484335.69,48428,18.5,73656.5,4.87,-2.55,-2.43,0,*73
1505484336.91,48429,18.5,73652.3,4.85,-1.87,-1.79,0,*76
1505484338.15,48430,18.5,73654.0,4.87,-1.87,-1.75,0,*70
1505484339.39,48431,18.5,73652.3,4.87,-1.63,-1.39,0,*73
1505484340.66,48432,18.5,73652.0,4.87,-1.39,-1.01,0,*74
1505484341.86,48433,18.5,73654.3,4.91,-1.55,-1.25,0,*7E
1505484343.08,48434,18.5,73654.8,4.89,-1.83,-1.71,0,*7A
1505484344.27,48435,18.5,73650.3,4.89,-1.79,-1.79,0,*76
1505484345.47,48436,18.5,73652.8,4.91,-1.55,-1.59,0,*70
1505484346.72,48437,18.5,73652.3,4.93,-2.79,-2.67,0,*70
1505484347.94,48438,18.5,73658.5,4.93,-2.99,-2.83,0,*7B
1505484349.18,48439,18.5,73654.8,4.93,-3.75,-3.71,0,*75
1505484350.43,48440,18.5,73654.0,4.93,-3.63,-3.75,0,*78
1505484351.62,48441,18.56,73656.0,4.89,-3.11,-3.27,0,*70
1505484352.83,48442,18.5,73654.0,4.91,-3.11,-3.35,0,*79
1505484354.04,48443,18.5,73654.0,4.91,-2.79,-3.07,0,*76
1505484355.28,48444,18.56,73658.0,4.93,-2.23,-2.59,0,*76
1505484356.5,48445,18.5,73654.0,4.93,-2.87,-3.35,0,*72
1505484357.74,48446,18.5,73652.5,4.93,-2.95,-3.55,0,*74
1505484358.93,48447,18.5,73654.5,4.95,-2.43,-3.39,0,*72
1505484360.13,48448,18.5,73652.5,4.95,-2.31,-3.27,0,*77
1505484361.35,48449,18.5,73654.0,4.95,-2.03,-2.91,0,*7B
1505484362.57,48450,18.5,73652.5,4.99,-2.11,-3.11,0,*75
1505484363.8,48451,18.5,73652.3,5.01,-2.11,-3.19,0,*7C
1505484365.06,48452,18.5,73654.5,5.01,-2.71,-3.63,0,*74
1505484366.32,48453,18.5,73654.3,5.01,-2.71,-3.59,0,*7C
1505484367.56,48454,18.5,73654.5,4.99,-2.51,-3.47,0,*76
1505484368.74,48455,18.5,73654.5,4.99,-2.39,-3.23,0,*7B
1505484369.99,48456,18.5,73654.8,4.99,-1.87,-2.63,0,*7B
1505484371.17,48457,18.5,73654.0,4.99,-1.51,-2.27,0,*71
1505484372.38,48458,18.5,73654.8,4.99,-0.89,-1.59,0,*40
1505484373.57,48459,18.5,73652.8,4.99,-0.65,-1.29,0,*44
1505484374.78,48460,18.5,73654.0,5.03,-0.45,-1.05,0,*40
1505484375.96,48461,18.5,73652.8,5.03,-0.29,-0.81,0,*76
1505484377.16,48462,18.5,73656.5,5.03,0.25,-0.11,0,*5D
1505484378.4,48463,18.5,73656.0,5.09,0.71,0.17,0,*7C
1505484379.58,48464,18.5,73656.8,5.11,0.37,0.09,0,*4F
1505484380.83,48465,18.5,73658.0,5.13,0.79,0.51,0,*7B
1505484382.05,48466,18.5,73656.8,5.13,0.67,0.41,0,*76
1505484383.25,48467,18.56,73660.8,5.15,0.13,-0.11,0,*5A
1505484384.45,48468,18.56,73658.3,5.17,0.05,-0.15,0,*64
1505484385.64,48469,18.5,73658.3,5.21,-0.61,-0.61,0,*7C
1505484386.85,48470,18.5,73656.5,5.23,-0.27,-0.15,0,*77
1505484388.06,48471,18.5,73656.3,5.25,-1.09,-0.81,0,*40
1505484389.27,48472,18.5,73656.5,5.25,-1.01,-0.69,0,*4D
1505484390.45,48473,18.5,73658.5,5.29,-0.81,-0.53,0,*70
1505484391.65,48474,18.56,73658.8,5.31,-0.57,-0.29,0,*78
1505484392.86,48475,18.5,73658.0,5.31,-0.41,-0.07,0,*42
1505484394.04,48476,18.5,73656.3,5.33,-0.65,-0.37,0,*76
1505484395.25,48477,18.5,73656.8,5.37,-0.89,-0.77,0,*75
1505484396.42,48478,18.56,73660.5,5.41,-1.59,-1.59,0,*7A
1505484397.63,48479,18.5,73658.3,5.45,-2.35,-2.59,0,*75
1505484398.83,48480,18.5,73656.8,5.49,-2.99,-3.47,0,*77
1505484400.06,48481,18.5,73656.0,5.49,-4.69,-5.07,0,*7D
1505484401.28,48482,18.56,73658.8,5.49,-7.19,-7.57,0,*7D
1505484402.51,48483,18.5,73654.3,5.51,-8.33,-9.11,0,*7E
1505484403.7,48484,18.5,73652.5,5.49,-9.71,-11.11,0,*4E
1505484404.95,48485,18.5,73658.8,5.51,-9.11,-11.45,0,*41
1505484406.15,48486,18.56,73662.0,5.49,-8.71,-12.03,0,*4D
1505484407.34,48487,18.5,73658.5,5.49,-10.27,-13.51,0,*70
1505484408.59,48488,18.56,73662.5,5.49,-12.53,-17.11,0,*7E
1505484409.84,48489,18.5,73662.3,5.45,-13.79,-18.35,0,*73
1505484411.09,48490,18.5,73660.5,5.43,-14.55,-19.75,0,*71
1505484412.32,48491,18.5,73662.3,5.41,-16.17,-21.39,0,*75
1505484413.51,48492,18.5,73662.5,5.41,-16.59,-21.63,0,*73
1505484414.74,48493,18.5,73662.3,5.41,-18.59,-23.75,0,*79
1505484415.96,48494,18.5,73662.8,5.37,-20.29,-24.71,0,*70
1505484417.2,48495,18.5,73662.0,5.33,-22.17,-24.15,0,*78
1505484418.48,48496,18.5,73662.3,5.31,-23.23,-24.21,0,*78
1505484419.7,48497,18.56,73660.8,5.29,-22.57,-23.29,0,*7D
1505484420.99,48498,18.5,73658.3,5.31,-21.53,-21.23,0,*74
1505484422.21,48499,18.5,73658.8,5.25,-19.95,-18.89,0,*7B
1505484423.42,48500,18.56,73662.3,5.25,-19.51,-16.83,0,*76
1505484424.64,48501,18.5,73658.0,5.23,-20.05,-17.11,0,*70
1505484425.83,48502,18.5,73660.5,5.19,-18.83,-16.45,0,*7F
1505484427.06,48503,18.56,73662.5,5.15,-19.03,-17.21,0,*78
1505484428.28,48504,18.56,73664.3,5.15,-18.89,-16.97,0,*70
1505484429.53,48505,18.56,73666.5,5.11,-18.55,-17.03,0,*78
1505484430.73,48506,18.56,73660.5,5.11,-17.31,-16.75,0,*76
1505484431.95,48507,18.5,73656.5,5.09,-15.75,-15.99,0,*7D
1505484433.19,48508,18.5,73656.8,5.09,-14.23,-15.25,0,*77
1505484434.42,48509,18.56,73662.8,5.09,-13.15,-15.11,0,*73
1505484435.65,48510,18.5,73660.5,5.09,-11.45,-13.55,0,*7A
1505484436.89,48511,18.56,73662.5,5.09,-10.75,-14.37,0,*7A
1505484438.15,48512,18.5,73660.3,5.09,-12.15,-16.75,0,*79
1505484439.43,48513,18.5,73658.8,5.09,-11.81,-17.07,0,*72
1505484440.65,48514,18.5,73662.3,5.11,-12.79,-18.21,0,*73
1505484441.9,48515,18.56,73664.3,5.09,-12.53,-18.21,0,*73
1505484443.1,48516,18.56,73660.8,5.07,-12.25,-18.41,0,*79
1505484444.34,48517,18.5,73662.3,5.07,-11.45,-17.97,0,*79
1505484445.56,48518,18.56,73660.5,5.07,-10.85,-17.45,0,*74
1505484446.77,48519,18.5,73660.5,5.07,-10.89,-17.35,0,*7E
1505484447.99,48520,18.56,73660.5,5.07,-10.89,-17.21,0,*71
1505484449.22,48521,18.5,73656.5,5.07,-10.63,-16.89,0,*77
1505484450.45,48522,18.56,73662.3,5.03,-10.49,-17.07,0,*7F
1505484451.7,48523,18.56,73662.5,5.03,-10.79,-17.63,0,*7F
1505484452.95,48524,18.5,73660.3,5.03,-10.63,-17.41,0,*73
1505484454.17,48525,18.5,73660.0,5.03,-10.09,-16.23,0,*7B
1505484455.4,48526,18.56,73660.8,5.03,-10.09,-16.09,0,*70
1505484456.59,48527,18.56,73662.8,4.99,-9.75,-15.67,0,*4B
1505484457.83,48528,18.56,73656.5,4.97,-9.93,-16.23,0,*41
1505484459.08,48529,18.56,73660.5,4.95,-9.37,-15.89,0,*4F
1505484460.35,48530,18.56,73658.0,4.93,-8.85,-16.17,0,*4D
1505484461.57,48531,18.56,73662.3,4.93,-8.33,-15.71,0,*42
1505484462.82,48532,18.56,73662.8,4.93,-8.41,-16.17,0,*47
1505484464.05,48533,18.56,73660.0,4.91,-9.23,-17.35,0,*40
1505484465.27,48534,18.5,73658.0,4.89,-8.81,-16.55,0,*40
1505484466.5,48535,18.56,73664.5,4.89,-8.81,-16.23,0,*40
1505484467.75,48536,18.5,73656.8,4.85,-8.81,-15.81,0,*44
1505484468.98,48537,18.5,73656.5,4.85,-8.03,-14.43,0,*40
1505484470.18,48538,18.56,73658.0,4.81,-6.85,-12.29,0,*41
1505484471.38,48539,18.56,73660.0,4.81,-6.55,-10.93,0,*4E
1505484472.6,48540,18.56,73658.5,4.79,-6.59,-10.23,0,*40
1505484473.82,48541,18.56,73660.0,4.77,-6.19,-9.19,0,*7A
1505484475.05,48542,18.56,73660.3,4.75,-5.65,-8.55,0,*7A
1505484476.32,48543,18.56,73660.0,4.75,-5.23,-8.11,0,*79
1505484477.52,48544,18.56,73658.0,4.73,-4.85,-7.49,0,*77
1505484478.73,48545,18.5,73656.5,4.73,-4.41,-7.05,0,*76
1505484479.91,48546,18.56,73660.0,4.73,-4.17,-6.69,0,*7D
1505484481.1,48547,18.56,73658.5,4.73,-4.17,-6.39,0,*79
1505484482.29,48548,18.56,73660.3,4.73,-4.29,-6.35,0,*77
1505484483.5,48549,18.56,73660.0,4.73,-4.57,-6.27,0,*7C
1505484484.72,48550,18.5,73658.3,4.73,-5.23,-7.15,0,*76
1505484485.94,48551,18.5,73658.5,4.73,-5.51,-7.31,0,*74
1505484487.17,48552,18.56,73662.0,4.73,-6.27,-7.95,0,*7B
1505484488.38,48553,18.56,73662.8,4.69,-7.27,-8.93,0,*79
1505484489.63,48554,18.56,73662.8,4.67,-7.57,-9.05,0,*79
1505484490.87,48555,18.56,73658.0,4.67,-7.27,-8.89,0,*7A
1505484492.09,48556,18.56,73662.3,4.67,-6.89,-8.37,0,*79
1505484493.3,48557,18.56,73662.8,4.63,-6.69,-7.83,0,*72
1505484494.55,48558,18.56,73658.5,4.63,-6.09,-7.27,0,*75
1505484495.79,48559,18.5,73658.3,4.63,-5.31,-6.09,0,*71
1505484497.06,48560,18.56,73662.0,4.63,-5.07,-5.65,0,*77
1505484498.3,48561,18.56,73658.8,4.63,-4.41,-4.85,0,*7A
1505484499.52,48562,18.56,73662.3,4.63,-4.29,-4.65,0,*79
1505484500.75,48563,18.56,73660.5,4.63,-4.21,-4.57,0,*71
1505484501.97,48564,18.56,73658.0,4.63,-4.29,-4.57,0,*7E
1505484503.19,48565,18.56,73660.3,4.61,-3.71,-4.09,0,*7C
1505484504.42,48566,18.56,73658.5,4.57,-3.43,-3.71,0,*73
1505484505.61,48567,18.56,73658.0,4.57,-2.95,-3.15,0,*7A
1505484506.82,48568,18.56,73658.0,4.55,-2.87,-3.19,0,*78
1505484508.02,48569,18.56,73658.5,4.57,-2.59,-2.91,0,*79
1505484509.27,48570,18.5,73658.8,4.53,-2.47,-2.75,0,*70
1505484510.48,48571,18.56,73660.3,4.55,-2.83,-3.07,0,*7B
1505484511.66,48572,18.56,73660.5,4.53,-2.87,-3.15,0,*79
1505484512.88,48573,18.5,73656.3,4.53,-2.63,-2.87,0,*78
1505484514.12,48574,18.56,73662.3,4.53,-2.55,-2.75,0,*77
1505484515.37,48575,18.56,73660.3,4.53,-2.47,-2.63,0,*72
1505484516.58,48576,18.56,73656.8,4.51,-2.23,-2.35,0,*72
1505484517.85,48577,18.56,73656.8,4.51,-1.87,-2.11,0,*78
1505484519.08,48578,18.56,73660.0,4.51,-1.79,-1.87,0,*7A
1505484520.27,48579,18.56,73658.3,4.49,-1.79,-1.79,0,*73